FW0887 Weather Reports


Display with metric or nautical units.
time (UTC)temp
F
wind
direction
speed
MPH
gust
MPH
rain 1hr
in
rain 24hr
in
rain mn
in
humidity
%
barometer
mb
20260508120036 59 360 1.0 3.0 0.00 0.01 0.00 66 1018.7
20260508114533 58 263 0.0 3.0 0.00 0.01 0.00 68 1018.7
20260508113032 57 30 1.0 4.0 0.00 0.01 0.00 68 1018.5
20260508111530 57 42 1.0 4.0 0.00 0.01 0.00 68 1018.6
20260508110029 56 276 0.0 3.0 0.00 0.01 0.00 69 1018.7
20260508104529 57 53 1.0 4.0 0.00 0.02 0.00 69 1018.7
20260508103029 57 219 1.0 3.0 0.00 0.02 0.00 69 1018.7
20260508101527 57 288 1.0 5.0 0.00 0.02 0.00 71 1018.6
20260508100027 57 103 0.0 3.0 0.00 0.02 0.00 70 1018.7
20260508094524 57 229 1.0 4.0 0.00 0.02 0.00 73 1018.9
20260508093024 56 45 0.0 3.0 0.00 0.02 0.00 75 1018.9
20260508091525 55 63 1.0 4.0 0.00 0.02 0.00 75 1018.9
20260508090021 54 287 0.0 5.0 0.00 0.02 0.00 78 1019.0
20260508084511 53 51 2.0 4.0 0.00 0.02 0.00 79 1019.1
20260508083009 52 9 0.0 3.0 0.00 0.02 0.00 80 1019.2
20260508081505 51 219 1.0 3.0 0.00 0.02 0.00 81 1019.1
20260508080004 51 298 1.0 3.0 0.00 0.02 0.00 82 1019.2
20260508074601 50 288 0.0 3.0 0.00 0.02 0.00 83 1019.1
20260508073058 50 290 0.0 3.0 0.00 0.02 0.00 84 1019.0
20260508071558 49 63 1.0 3.0 0.00 0.02 0.00 85 1018.8
20260508070101 49 346 0.0 4.0 0.00 0.02 0.00 85 1018.6
20260508064550 48 322 0.0 2.0 0.00 0.02 0.00 86 1018.5
20260508063050 48 311 0.0 4.0 0.00 0.02 0.00 87 1018.4
20260508061548 47 82 0.0 2.0 0.00 0.02 0.00 87 1018.2
20260508060047 47 46 0.0 3.0 0.00 0.02 0.00 87 1018.2
20260508054547 47 54 0.0 4.0 0.00 0.02 0.00 88 1018.0
20260508053049 47 81 0.0 2.0 0.00 0.02 0.00 88 1017.7
20260508051543 47 31 0.0 3.0 0.00 0.02 0.00 88 1017.8
20260508050040 46 64 0.0 2.0 0.00 0.02 0.00 88 1017.5
20260508044555 46 47 0.0 3.0 0.00 0.02 0.00 88 1017.5
20260508043044 46 74 0.0 3.0 0.00 0.02 0.00 88 1017.5
20260508041537 46 340 0.0 2.0 0.00 0.02 0.00 88 1017.3
20260508040036 46 5 0.0 1.0 0.00 0.02 0.00 88 1017.3
20260508034543 46 5 0.0 0.0 0.00 0.02 0.00 88 1017.2
20260508033035 46 5 0.0 1.0 0.00 0.02 0.00 88 1017.1
20260508031534 47 5 0.0 2.0 0.00 0.02 0.00 88 1017.1
20260508030042 47 5 0.0 2.0 0.00 0.02 0.00 88 1017.0
20260508024538 47 5 0.0 1.0 0.00 0.02 0.00 88 1017.0
20260508023032 47 5 0.0 2.0 0.00 0.02 0.00 88 1017.0
20260508021531 47 5 0.0 1.0 0.00 0.02 0.00 88 1017.0
20260508020029 47 5 0.0 1.0 0.00 0.02 0.00 88 1017.0
20260508014529 47 5 0.0 2.0 0.00 0.03 0.00 88 1017.0
20260508013027 47 51 0.0 2.0 0.00 0.03 0.00 88 1017.1
20260508011537 47 30 0.0 1.0 0.00 0.03 0.00 88 1016.9
20260508010027 48 38 0.0 2.0 0.00 0.03 0.00 88 1016.9
20260508004529 48 38 0.0 2.0 0.00 0.03 0.00 88 1017.1
20260508003024 48 19 0.0 0.0 0.00 0.03 0.00 88 1017.2
20260508001522 48 19 0.0 0.0 0.00 0.03 0.00 87 1017.2
20260508000022 48 19 0.0 0.0 0.00 0.03 0.00 87 1017.2
20260507234522 48 19 0.0 0.0 0.00 0.03 0.00 87 1017.3
20260507233023 48 19 0.0 2.0 0.00 0.03 0.00 87 1017.5
20260507231531 48 19 0.0 1.0 0.00 0.03 0.00 87 1017.5
20260507230018 48 19 0.0 0.0 0.00 0.03 0.00 87 1017.5
20260507224520 48 19 0.0 1.0 0.00 0.03 0.00 88 1017.4
20260507223015 48 19 0.0 1.0 0.00 0.03 0.00 87 1017.3
20260507221516 48 19 0.0 3.0 0.00 0.03 0.00 88 1017.3
20260507220012 48 54 0.0 3.0 0.00 0.03 0.00 88 1017.3
20260507214511 49 55 0.0 2.0 0.00 0.05 0.03 88 1017.2
20260507213010 49 317 0.0 2.0 0.00 0.05 0.03 88 1017.0
20260507211511 49 351 0.0 4.0 0.00 0.05 0.03 88 1016.9
20260507210009 49 229 0.0 0.0 0.00 0.05 0.03 87 1017.0
20260507204507 49 228 0.0 0.0 0.00 0.10 0.03 87 1016.9
20260507203005 49 229 0.0 0.0 0.00 0.10 0.03 87 1016.7
20260507201505 49 229 0.0 0.0 0.00 0.10 0.03 87 1016.7
20260507200005 49 228 0.0 0.0 0.00 0.10 0.03 86 1016.7
20260507194502 49 229 0.0 1.0 0.00 0.28 0.03 86 1016.5
20260507193001 49 229 0.0 2.0 0.00 0.28 0.03 86 1016.3
20260507191600 49 229 0.0 3.0 0.00 0.28 0.03 85 1016.2
20260507190059 50 229 0.0 2.0 0.00 0.28 0.03 85 1016.0
20260507184558 50 261 0.0 1.0 0.00 0.28 0.03 84 1015.8
20260507183104 50 261 1.0 3.0 0.00 0.28 0.03 84 1015.7
20260507181555 51 265 0.0 3.0 0.00 0.28 0.03 84 1015.6
20260507180055 51 261 0.0 3.0 0.00 0.28 0.03 84 1015.4
20260507174605 51 273 0.0 3.0 0.00 0.42 0.03 84 1015.4
20260507173059 51 263 0.0 3.0 0.00 0.42 0.03 84 1015.2
20260507171608 51 283 1.0 3.0 0.00 0.42 0.03 84 1015.2
20260507170055 51 294 1.0 4.0 0.00 0.42 0.03 84 1015.0
20260507164602 52 270 0.0 4.0 0.00 0.42 0.03 85 1014.9
20260507163048 52 237 1.0 4.0 0.00 0.42 0.03 85 1014.8
20260507161550 52 240 1.0 4.0 0.00 0.42 0.03 87 1014.8
20260507160048 51 274 1.0 4.0 0.00 0.42 0.03 88 1014.8
20260507154546 50 250 1.0 4.0 0.00 0.42 0.03 86 1014.9
20260507153049 51 244 0.0 4.0 0.00 0.42 0.03 85 1014.9
20260507151545 51 301 1.0 4.0 0.00 0.42 0.03 85 1014.8
20260507150043 51 253 2.0 8.0 0.00 0.42 0.03 85 1014.7
20260507144541 51 247 1.0 5.0 0.00 0.42 0.03 85 1014.7
20260507143045 51 261 2.0 6.0 0.01 0.42 0.03 86 1014.5
20260507141545 51 277 3.0 9.0 0.01 0.42 0.03 86 1014.5
20260507140040 51 261 2.0 6.0 0.01 0.42 0.03 86 1014.4
20260507134547 50 290 2.0 6.0 0.01 0.42 0.03 85 1014.3
20260507133036 51 296 2.0 10.0 0.00 0.41 0.02 84 1014.3
20260507131539 52 248 2.0 4.0 0.00 0.41 0.02 86 1014.1
20260507130034 51 235 1.0 4.0 0.00 0.41 0.02 87 1014.0
20260507124533 51 273 1.0 3.0 0.00 0.41 0.02 86 1014.0
20260507123035 51 264 1.0 5.0 0.00 0.41 0.02 85 1013.9
20260507121530 52 277 2.0 8.0 0.00 0.41 0.02 86 1013.7